When you browse on this site, cookies collect data to enhance your experience and personalize the content and advertising you see.
Visit our Privacy Policy to learn more. By continuing to use the site, you agree to this use of cookies and data.
  • en Suisse
  • Liste des pays
  • À 7 jours
  • Température de l'eau
  • Carte satellitaire
  • Carte météo
  • Widgets météo
  • user-avatar
    Se connecter

    Météo par heure à Kloniczki

    Ce jour, 20 Mai, Lundi

    Heure Température Précipitation Vent Pression Humidité
    00:00 +14°C° 0 mm 3 m/s 738 mmHg 91%
    01:00 +14°C° 0 mm 3 m/s 738 mmHg 95%
    02:00 +14°C° 0 mm 3 m/s 738 mmHg 95%
    03:00 +13°C° 0 mm 3 m/s 737 mmHg 95%
    04:00 +14°C° 0 mm 2 m/s 737 mmHg 95%
    05:00 +14°C° 0 mm 3 m/s 737 mmHg 92%
    06:00 +17°C° 0 mm 4 m/s 737 mmHg 89%
    07:00 +18°C° 0 mm 4 m/s 736 mmHg 86%
    08:00 +20°C° 1 mm 5 m/s 736 mmHg 81%
    09:00 +21°C° 1 mm 6 m/s 736 mmHg 76%
    10:00 +23°C° 1 mm 7 m/s 737 mmHg 70%
    11:00 +23°C° 0.2 mm 7 m/s 736 mmHg 66%
    12:00 +23°C° 0.2 mm 6 m/s 736 mmHg 62%
    13:00 +24°C° 0.2 mm 6 m/s 736 mmHg 58%
    14:00 +25°C° 0 mm 5 m/s 736 mmHg 57%
    15:00 +25°C° 0 mm 4 m/s 736 mmHg 55%
    16:00 +25°C° 0 mm 3 m/s 737 mmHg 54%
    17:00 +22°C° 0 mm 3 m/s 737 mmHg 59%
    18:00 +21°C° 0 mm 2 m/s 737 mmHg 64%
    19:00 +21°C° 0 mm 1 m/s 737 mmHg 69%
    20:00 +20°C° 0 mm 1 m/s 737 mmHg 72%
    21:00 +19°C° 0 mm 1 m/s 737 mmHg 74%
    22:00 +17°C° 0 mm 2 m/s 737 mmHg 77%
    23:00 +16°C° 0 mm 2 m/s 737 mmHg 79%

    Demain, 21 Mai, Mardi

    Heure Température Précipitation Vent Pression Humidité
    00:00 +15°C° 0 mm 2 m/s 737 mmHg 81%
    01:00 +14°C° 0 mm 3 m/s 737 mmHg 83%
    02:00 +14°C° 0 mm 3 m/s 737 mmHg 83%
    03:00 +13°C° 0 mm 3 m/s 737 mmHg 83%
    04:00 +13°C° 0 mm 3 m/s 737 mmHg 83%
    05:00 +14°C° 0.1 mm 3 m/s 737 mmHg 80%
    06:00 +16°C° 0.1 mm 3 m/s 737 mmHg 78%
    07:00 +17°C° 0.1 mm 3 m/s 737 mmHg 75%
    08:00 +18°C° 0.2 mm 3 m/s 737 mmHg 73%
    09:00 +18°C° 0.2 mm 2 m/s 737 mmHg 71%
    10:00 +19°C° 0.2 mm 2 m/s 737 mmHg 69%
    11:00 +19°C° 0.3 mm 2 m/s 737 mmHg 69%
    12:00 +19°C° 0.3 mm 3 m/s 737 mmHg 69%
    13:00 +19°C° 0.3 mm 3 m/s 737 mmHg 69%
    14:00 +19°C° 0 mm 3 m/s 737 mmHg 68%
    15:00 +20°C° 0 mm 3 m/s 737 mmHg 66%
    16:00 +20°C° 0 mm 3 m/s 737 mmHg 65%
    17:00 +19°C° 0 mm 2 m/s 737 mmHg 70%
    18:00 +18°C° 0 mm 2 m/s 737 mmHg 75%
    19:00 +18°C° 0 mm 1 m/s 737 mmHg 80%
    20:00 +16°C° 0.1 mm 1 m/s 737 mmHg 83%
    21:00 +15°C° 0.1 mm 2 m/s 737 mmHg 86%
    22:00 +15°C° 0.1 mm 2 m/s 737 mmHg 89%
    23:00 +15°C° 0.9 mm 2 m/s 737 mmHg 91%

    Après-demain, 22 Mai, Mercredi

    Heure Température Précipitation Vent Pression Humidité
    00:00 +14°C° 0.9 mm 3 m/s 737 mmHg 93%
    01:00 +14°C° 0.9 mm 3 m/s 737 mmHg 94%
    02:00 +14°C° 0.2 mm 3 m/s 737 mmHg 95%
    03:00 +13°C° 0.2 mm 4 m/s 737 mmHg 95%
    04:00 +13°C° 0.2 mm 4 m/s 737 mmHg 96%
    05:00 +13°C° 0.1 mm 4 m/s 737 mmHg 95%
    06:00 +14°C° 0.1 mm 3 m/s 737 mmHg 93%
    07:00 +16°C° 0.1 mm 3 m/s 737 mmHg 92%
    08:00 +16°C° 0.2 mm 3 m/s 737 mmHg 91%
    09:00 +16°C° 0.2 mm 2 m/s 737 mmHg 90%
    10:00 +17°C° 0.2 mm 2 m/s 738 mmHg 89%
    11:00 +17°C° 1.1 mm 3 m/s 738 mmHg 86%
    12:00 +18°C° 1.1 mm 4 m/s 738 mmHg 84%
    13:00 +19°C° 1.1 mm 5 m/s 738 mmHg 81%
    14:00 +17°C° 1 mm 6 m/s 738 mmHg 84%
    15:00 +16°C° 1 mm 7 m/s 739 mmHg 86%
    16:00 +16°C° 1 mm 8 m/s 739 mmHg 89%
    17:00 +15°C° 0.3 mm 7 m/s 739 mmHg 90%
    18:00 +14°C° 0.3 mm 7 m/s 739 mmHg 91%
    19:00 +14°C° 0.3 mm 7 m/s 739 mmHg 93%
    20:00 +14°C° 0.4 mm 7 m/s 740 mmHg 93%
    21:00 +14°C° 0.4 mm 7 m/s 740 mmHg 94%
    22:00 +14°C° 0.4 mm 7 m/s 741 mmHg 94%
    23:00 +12°C° 0.3 mm 8 m/s 741 mmHg 94%

    23 Mai, Jeudi

    Heure Température Précipitation Vent Pression Humidité
    00:00 +12°C° 0.3 mm 8 m/s 741 mmHg 94%
    01:00 +12°C° 0.3 mm 8 m/s 741 mmHg 93%
    02:00 +11°C° 0.2 mm 8 m/s 741 mmHg 93%
    03:00 +11°C° 0.2 mm 8 m/s 742 mmHg 93%
    04:00 +11°C° 0.2 mm 8 m/s 742 mmHg 93%
    05:00 +10°C° 0.3 mm 8 m/s 743 mmHg 93%
    06:00 +10°C° 0.3 mm 8 m/s 743 mmHg 93%
    07:00 +9°C° 0.3 mm 8 m/s 744 mmHg 92%
    08:00 +9°C° 0.5 mm 8 m/s 744 mmHg 92%
    09:00 +7°C° 0.5 mm 8 m/s 745 mmHg 92%
    10:00 +7°C° 0.5 mm 8 m/s 745 mmHg 92%
    11:00 +8°C° 0.2 mm 7 m/s 745 mmHg 90%
    12:00 +9°C° 0.2 mm 7 m/s 746 mmHg 88%
    13:00 +9°C° 0.2 mm 6 m/s 746 mmHg 87%
    14:00 +10°C° 0 mm 5 m/s 746 mmHg 85%
    15:00 +11°C° 0 mm 4 m/s 746 mmHg 84%
    16:00 +12°C° 0 mm 3 m/s 746 mmHg 82%
    17:00 +12°C° 0 mm 3 m/s 746 mmHg 82%
    18:00 +13°C° 0 mm 2 m/s 746 mmHg 83%
    19:00 +13°C° 0 mm 2 m/s 746 mmHg 83%
    20:00 +12°C° 0 mm 2 m/s 746 mmHg 85%
    21:00 +10°C° 0 mm 3 m/s 747 mmHg 86%
    22:00 +9°C° 0 mm 3 m/s 747 mmHg 88%
    23:00 +8°C° 0 mm 3 m/s 747 mmHg 88%

    24 Mai, Vendredi

    Heure Température Précipitation Vent Pression Humidité
    00:00 +7°C° 0 mm 2 m/s 746 mmHg 88%
    01:00 +7°C° 0 mm 2 m/s 746 mmHg 88%
    02:00 +6°C° 0 mm 2 m/s 746 mmHg 89%
    03:00 +6°C° 0 mm 2 m/s 746 mmHg 90%
    04:00 +6°C° 0 mm 1 m/s 746 mmHg 91%
    05:00 +8°C° 0 mm 1 m/s 746 mmHg 85%
    06:00 +8°C° 0 mm 2 m/s 746 mmHg 79%
    07:00 +10°C° 0 mm 2 m/s 745 mmHg 74%
    08:00 +13°C° 0 mm 2 m/s 745 mmHg 67%
    09:00 +14°C° 0 mm 2 m/s 745 mmHg 60%
    10:00 +15°C° 0 mm 2 m/s 745 mmHg 54%
    11:00 +16°C° 0 mm 2 m/s 744 mmHg 51%
    12:00 +18°C° 0 mm 1 m/s 744 mmHg 48%
    13:00 +19°C° 0 mm 1 m/s 743 mmHg 46%
    14:00 +19°C° 0 mm 1 m/s 743 mmHg 45%
    15:00 +17°C° 0 mm 0 m/s 742 mmHg 45%
    16:00 +17°C° 0 mm 0 m/s 742 mmHg 44%
    17:00 +18°C° 0 mm 1 m/s 741 mmHg 50%
    18:00 +16°C° 0 mm 1 m/s 741 mmHg 56%
    19:00 +15°C° 0 mm 1 m/s 741 mmHg 62%
    20:00 +14°C° 0 mm 1 m/s 741 mmHg 61%
    21:00 +13°C° 0 mm 1 m/s 741 mmHg 61%
    22:00 +12°C° 0 mm 1 m/s 741 mmHg 61%
    23:00 +12°C° 0 mm 1 m/s 741 mmHg 64%

    25 Mai, Samedi

    Heure Température Précipitation Vent Pression Humidité
    00:00 +11°C° 0 mm 1 m/s 741 mmHg 66%
    01:00 +11°C° 0 mm 1 m/s 740 mmHg 68%
    02:00 +10°C° 0 mm 1 m/s 740 mmHg 70%
    03:00 +9°C° 0 mm 2 m/s 740 mmHg 72%
    04:00 +9°C° 0 mm 2 m/s 740 mmHg 74%
    05:00 +12°C° 0 mm 2 m/s 740 mmHg 71%
    06:00 +13°C° 0 mm 2 m/s 740 mmHg 69%
    07:00 +15°C° 0 mm 2 m/s 740 mmHg 67%
    08:00 +16°C° 0 mm 2 m/s 740 mmHg 61%
    09:00 +19°C° 0 mm 1 m/s 740 mmHg 56%
    10:00 +20°C° 0 mm 1 m/s 741 mmHg 51%
    11:00 +21°C° 0 mm 1 m/s 740 mmHg 49%
    12:00 +20°C° 0 mm 0 m/s 740 mmHg 46%
    13:00 +21°C° 0 mm 0 m/s 740 mmHg 44%
    14:00 +21°C° 0 mm 0 m/s 740 mmHg 44%
    15:00 +23°C° 0 mm 1 m/s 740 mmHg 44%
    16:00 +23°C° 0 mm 1 m/s 740 mmHg 43%
    17:00 +21°C° 0 mm 1 m/s 740 mmHg 49%
    18:00 +20°C° 0 mm 1 m/s 740 mmHg 55%
    19:00 +19°C° 0 mm 1 m/s 740 mmHg 61%
    20:00 +18°C° 0 mm 1 m/s 741 mmHg 61%
    21:00 +15°C° 0 mm 0 m/s 741 mmHg 61%
    22:00 +14°C° 0 mm 0 m/s 741 mmHg 62%
    23:00 +14°C° 0 mm 1 m/s 741 mmHg 66%
    Voir plus